Content
SEND FEEDBACK

Daily
Averages
Monthly
Summary
Canada

QUEBEC CITY, QUEBEC


Home > North America > Canada > Quebec
Elevation: 239 feet     Latitude: 46 48N     Longitude: 071 23W

WEATHER
 
SELECT A DAY
Number of Records: 195,749;   Date Range: 6/30/96 - 10/19/14
 
SHARE

PRINT THIS DATA

[ ← Previous Day ]
WEATHER ALMANAC - JULY 28, 2013
[ Next Day → ]
[ °C ]   °F
Weather ElementAverageHighLow
Temperature68.9 °F75.2 °F (2:00 pm)64 °F (11:00 pm)
Dewpoint58.4 °F64 °F (2:00 pm) (7:00 pm)
Humidity72.5 %83 % (1:00 am)61 % (3:00 pm)
Barometer29.05 in30.04 in (8:00 am) (7:00 pm)
Wind Speed10.8 mph16.1 mph (8:00 am)
Wind Gust24.2 mph (9:00 pm)
Weather ElementAverage
Visibility24.4 mi
Wind DirectionENE (73.4 °)

Weather ElementTotal
Precipitation---
Cooling Degree Days4.6 (Base 65)
Growing Degree Days19.6 (Base 50)
Averaged from 32 records on July 28, 2013
WEATHER CONDITIONS BREAKOUT
WIND DIRECTION BREAKOUT
WEATHER BY HOUR - JULY 28, 2013
[ °C ]   °F
Local TimeTemperatureDewpointHumidityBarometerVisibilityWind DirectionWind SpeedGust SpeedPrecipitationEventsConditions
1:00 AM66.2 °F60.8 °F83 %30.02 in15.0 miENE (60°)6.9 mphPartly Cloudy
2:00 AM65.0 °F59.0 °F75 %29.99 inEast (80°)4.6 mph
2:00 AM66.2 °F59.0 °F78 %30.01 in15.0 miENE (60°)10.4 mphMostly Cloudy
3:00 AM66.2 °F59.0 °F78 %30.00 in15.0 miENE (60°)8.1 mphScattered Clouds
4:00 AM66.2 °F59.0 °F78 %30.00 in15.0 miENE (70°)8.1 mphScattered Clouds
5:00 AM65.0 °F59.0 °F76 %29.99 inEast (80°)3.5 mph
5:00 AM66.2 °F59.0 °F78 %30.01 in20.0 miENE (60°)8.1 mphScattered Clouds
6:00 AM66.2 °F59.0 °F78 %30.02 in30.0 miENE (60°)10.4 mphMostly Cloudy
7:00 AM68.0 °F60.8 °F78 %30.02 in30.0 miENE (70°)11.5 mphMostly Cloudy
8:00 AM69.0 °F61.0 °F70 %30.01 inEast (80°)8.1 mph
8:00 AM69.8 °F60.8 °F73 %30.04 in30.0 miENE (70°)16.1 mphMostly Cloudy
9:00 AM69.8 °F60.8 °F73 %30.03 in30.0 miENE (70°)10.4 mphMostly Cloudy
10:00 AM71.6 °F60.8 °F69 %30.02 in30.0 miEast (80°)11.5 mph20.7 mphMostly Cloudy
11:00 AM72.0 °F62.0 °F63 %29.99 inEast (90°)9.2 mph
11:00 AM71.6 °F60.8 °F69 %30.01 in30.0 miEast (80°)13.8 mphMostly Cloudy
12:00 PM73.4 °F60.8 °F65 %30.00 in30.0 miENE (60°)11.5 mphMostly Cloudy
1:00 PM73.4 °F60.8 °F65 %29.99 in30.0 miENE (70°)13.8 mphMostly Cloudy
2:00 PM74.0 °F64.0 °F63 %29.96 inEast (80°)9.2 mph
2:00 PM75.2 °F62.6 °F65 %29.98 in30.0 miEast (80°)12.7 mphMostly Cloudy
3:00 PM75.2 °F60.8 °F61 %29.98 in30.0 miEast (80°)12.7 mphMostly Cloudy
4:00 PM71.6 °F60.8 °F69 %29.97 in30.0 miENE (70°)16.1 mph23.0 mphMostly Cloudy
5:00 PM72.0 °F62.0 °F64 %29.94 inEast (80°)8.1 mph
5:00 PM71.6 °F60.8 °F69 %29.96 in30.0 miENE (70°)15.0 mph23.0 mphMostly Cloudy
6:00 PM69.8 °F60.8 °F73 %29.96 in30.0 miENE (70°)10.4 mph17.3 mphOvercast
7:00 PM68.0 °F59.0 °F73 %29.96 in30.0 miEast (80°)13.8 mphOvercast
8:00 PM67.0 °F60.0 °F71 %29.94 inEast (90°)10.4 mph
8:00 PM68.0 °F59.0 °F73 %29.96 in30.0 miEast (80°)15.0 mphOvercast
9:00 PM66.2 °F59.0 °F78 %29.97 in15.0 miEast (80°)13.8 mph24.2 mphOvercast
10:00 PM66.2 °F59.0 °F78 %29.96 in15.0 miENE (70°)12.7 mph19.6 mphOvercast
11:00 PM64.0 °F59.0 °F80 %29.94 inEast (80°)10.4 mph
11:00 PM64.4 °F59.0 °F83 %29.96 in15.0 miEast (80°)8.1 mphOvercast
11:33 PM64.4 °F0.0 °F10.0 miENE (60°)10.4 mphRainLight Rain
Hourly data recorded from CYQB, located miles away from Quebec City, Quebec







STORIES FROM OUR PARTNERS